SUPERBIRD-B3 (43271 NORAD) Tracking and Keplerian Element Data

This shows tracking and keplerian element data for the satellite.

Feedback or suggestion? Click here.




ElementValue
Catalog43271
NameSUPERBIRD-B3
Epoch Orbit2115
Epoch Day13.11636038
Epoch Year2024
RAAN73.3063
Inclination0.0242
Eccentricity0.0001017
Argument of Perigee197.7399
Mean Anonmoly44.9318
Mean Motion1.00269062
Decay Rate-8.5E-07
L11 43271U 18033A 24013.11636038 -.00000085 00000+0 00000+0 0 9992
L22 43271 0.0242 73.3063 0001017 197.7399 44.9318 1.00269062 21157



Live tracking and technical data element details for SUPERBIRD-B3 (NORAD 43271). SUPERBIRD-B3 can be tracked NOW for your location showing map with azimuth and elevation plus other details from your city location.







IsCatalogInMostPopularTable: catalog: 43271, numindb: 2433
Update: records affected: 1



GetName: 43271 SUPERBIRD-B3

Hit Count: updated at: Fri, 19 Apr 2024 12:13:25 GMT